RYR59SQ LEPA-EDDG

Flight info

Callsign RYR59SQ
Flight time 2h 17m
Altitude 38000
Route MEROS N853 LUMAS DCT MAXIR DCT LUSOL DCT BODRU DCT OKTET DCT IRMAR DCT KINES DCT VANAS DCT MOBLO DCT UBIMA DCT GILIR DCT PENDU DCT IXILU DCT EPL DCT ROUSY DCT DIK/N0443F390 T856 DEPOK/N0350F230 T856 QATJA N853 HMM HMM1A
Aircraft B738/M-SDE3FGILRWY/SB1

Departure

Time 2026-05-08 15:46
Airport Palma de Mallorca Airport (LEPA)

Arrival

Time 2026-05-08 18:03
Airport Münster Osnabrück Airport (EDDG)
Time Latitude Longitude Altitude Speed Heading
2026-05-08 15:07 39.55000 2.73443 28 ft 0 kts 164°
2026-05-08 15:31 39.55002 2.73442 28 ft 1 kts 164°
2026-05-08 15:31 39.55016 2.73437 29 ft 2 kts 155°
2026-05-08 15:31 39.55028 2.73425 30 ft 2 kts 128°
2026-05-08 15:32 39.55035 2.73408 31 ft 2 kts 104°
2026-05-08 15:32 39.55036 2.73389 29 ft 2 kts 80°
2026-05-08 15:32 39.55032 2.73374 27 ft 1 kts 83°
2026-05-08 15:32 39.55033 2.73363 26 ft 1 kts 102°
2026-05-08 15:33 39.55033 2.73356 24 ft 0 kts 88°
2026-05-08 15:39 39.55035 2.73383 25 ft 7 kts 82°
2026-05-08 15:39 39.55056 2.73443 28 ft 8 kts 62°
2026-05-08 15:40 39.55083 2.73500 32 ft 5 kts 56°
2026-05-08 15:40 39.55119 2.73570 38 ft 13 kts 57°
2026-05-08 15:40 39.55172 2.73678 41 ft 13 kts 59°
2026-05-08 15:40 39.55168 2.73782 41 ft 11 kts 73°
2026-05-08 15:41 39.55149 2.73870 40 ft 13 kts 146°
2026-05-08 15:41 39.55065 2.73940 40 ft 14 kts 147°
2026-05-08 15:41 39.54975 2.74009 37 ft 15 kts 149°
2026-05-08 15:41 39.54880 2.74085 32 ft 17 kts 148°
2026-05-08 15:42 39.54788 2.74117 29 ft 11 kts 224°
2026-05-08 15:42 39.54741 2.74026 32 ft 14 kts 239°
2026-05-08 15:42 39.54688 2.73916 33 ft 13 kts 239°
2026-05-08 15:42 39.54639 2.73814 33 ft 12 kts 237°
2026-05-08 15:43 39.54592 2.73716 32 ft 12 kts 238°
2026-05-08 15:43 39.54526 2.73694 32 ft 11 kts 152°
2026-05-08 15:43 39.54498 2.73714 32 ft 0 kts 149°
2026-05-08 15:44 39.54496 2.73716 32 ft 0 kts 149°
2026-05-08 15:44 39.54493 2.73719 32 ft 0 kts 149°
2026-05-08 15:44 39.54487 2.73723 32 ft 4 kts 149°
2026-05-08 15:45 39.54429 2.73768 32 ft 8 kts 148°
2026-05-08 15:45 39.54425 2.73805 32 ft 5 kts 60°
2026-05-08 15:45 39.54523 2.74014 34 ft 62 kts 58°
2026-05-08 15:45 39.54880 2.74768 16 ft 131 kts 58°
2026-05-08 15:46 39.55444 2.75980 250 ft 166 kts 60°
2026-05-08 15:46 39.56018 2.77204 1051 ft 162 kts 58°
2026-05-08 15:46 39.56644 2.78454 1603 ft 176 kts 59°
2026-05-08 15:46 39.57331 2.79869 2085 ft 191 kts 61°
2026-05-08 15:47 39.58007 2.81399 2585 ft 207 kts 62°
2026-05-08 15:47 39.58757 2.83091 3165 ft 220 kts 60°
2026-05-08 15:47 39.59537 2.84802 3806 ft 226 kts 60°
2026-05-08 15:47 39.60346 2.86560 4039 ft 233 kts 60°
2026-05-08 15:48 39.62009 2.90173 5672 ft 234 kts 59°
2026-05-08 15:48 39.62826 2.92007 6257 ft 244 kts 62°
2026-05-08 15:48 39.63632 2.94018 6735 ft 261 kts 63°
2026-05-08 15:49 39.64496 2.96182 7181 ft 278 kts 63°
2026-05-08 15:49 39.65433 2.98456 7748 ft 291 kts 62°
2026-05-08 15:49 39.66407 3.00764 8421 ft 298 kts 62°
2026-05-08 15:49 39.67416 3.03124 9106 ft 304 kts 62°
2026-05-08 15:50 39.68457 3.05549 9782 ft 310 kts 62°
2026-05-08 15:50 39.69510 3.08004 10438 ft 318 kts 61°
2026-05-08 15:50 39.70620 3.10603 10837 ft 334 kts 62°
2026-05-08 15:50 39.71769 3.13307 11183 ft 352 kts 61°
2026-05-08 15:51 39.72983 3.16168 11602 ft 368 kts 61°
2026-05-08 15:51 39.74229 3.19113 12092 ft 380 kts 61°
2026-05-08 15:51 39.75518 3.22150 12774 ft 386 kts 61°
2026-05-08 15:51 39.76856 3.25203 13417 ft 392 kts 57°
2026-05-08 15:52 39.78547 3.27976 14115 ft 396 kts 47°
2026-05-08 15:52 39.80392 3.30647 14853 ft 401 kts 46°
2026-05-08 15:52 39.82259 3.33357 15586 ft 405 kts 46°
2026-05-08 15:52 39.84144 3.36129 15897 ft 409 kts 46°
2026-05-08 15:53 39.85988 3.38872 15959 ft 407 kts 46°
2026-05-08 15:53 39.87856 3.41673 15960 ft 407 kts 47°
2026-05-08 15:53 39.89700 3.44448 15969 ft 407 kts 47°
2026-05-08 15:53 39.91532 3.47211 15957 ft 405 kts 47°
2026-05-08 15:54 39.93376 3.50000 15972 ft 407 kts 47°
2026-05-08 15:54 39.95227 3.52800 16127 ft 416 kts 46°
2026-05-08 15:54 39.97092 3.55621 17126 ft 411 kts 46°
2026-05-08 15:54 39.98974 3.58465 17779 ft 416 kts 46°
2026-05-08 15:55 40.00870 3.61329 18405 ft 422 kts 46°
2026-05-08 15:55 40.04715 3.67152 19760 ft 428 kts 47°
2026-05-08 15:55 40.06667 3.70108 20366 ft 433 kts 47°
2026-05-08 15:56 40.08627 3.73079 21041 ft 436 kts 47°
2026-05-08 15:56 40.10619 3.76098 21616 ft 440 kts 47°
2026-05-08 15:56 40.12642 3.79166 22201 ft 443 kts 47°
2026-05-08 15:56 40.14649 3.82216 22766 ft 447 kts 47°
2026-05-08 15:57 40.16655 3.85270 23292 ft 451 kts 47°
2026-05-08 15:57 40.18706 3.88399 23849 ft 454 kts 47°
2026-05-08 15:57 40.20768 3.91547 24402 ft 457 kts 47°
2026-05-08 15:57 40.22846 3.94722 24884 ft 461 kts 47°
2026-05-08 15:58 40.24926 3.97900 25414 ft 464 kts 47°
2026-05-08 15:58 40.27021 4.01105 25849 ft 468 kts 47°
2026-05-08 15:58 40.29143 4.04355 26306 ft 472 kts 47°
2026-05-08 15:58 40.31275 4.07627 26706 ft 477 kts 47°
2026-05-08 15:59 40.33432 4.10946 27240 ft 479 kts 47°
2026-05-08 15:59 40.35593 4.14272 27673 ft 482 kts 47°
2026-05-08 15:59 40.37775 4.17633 28060 ft 486 kts 47°
2026-05-08 15:59 40.39959 4.21002 28495 ft 489 kts 47°
2026-05-08 16:00 40.42157 4.24397 28993 ft 490 kts 48°
2026-05-08 16:00 40.44355 4.27796 29471 ft 491 kts 48°
2026-05-08 16:00 40.46611 4.31098 29953 ft 491 kts 44°
2026-05-08 16:00 40.49096 4.34165 30443 ft 489 kts 37°
2026-05-08 16:01 40.51794 4.36856 31100 ft 483 kts 31°
2026-05-08 16:01 40.54636 4.39139 31681 ft 478 kts 25°
2026-05-08 16:01 40.57610 4.41018 32113 ft 475 kts 18°
2026-05-08 16:01 40.60727 4.42489 32533 ft 472 kts 12°
2026-05-08 16:02 40.63892 4.43507 32975 ft 469 kts
2026-05-08 16:02 40.67107 4.44081 33421 ft 463 kts 359°
2026-05-08 16:02 40.70309 4.44249 33810 ft 461 kts 354°
2026-05-08 16:02 40.73508 4.44258 34218 ft 461 kts 354°
2026-05-08 16:03 40.76672 4.44335 34617 ft 461 kts 357°
2026-05-08 16:03 40.79886 4.44580 35062 ft 460 kts 359°
2026-05-08 16:03 40.83065 4.44994 35435 ft 459 kts
2026-05-08 16:03 40.86203 4.45535 35769 ft 458 kts
2026-05-08 16:04 40.89345 4.46171 36107 ft 458 kts
2026-05-08 16:04 40.92499 4.46872 36418 ft 459 kts
2026-05-08 16:04 40.95633 4.47603 36783 ft 459 kts
2026-05-08 16:04 40.98769 4.48351 37154 ft 459 kts
2026-05-08 16:05 41.01888 4.49107 37505 ft 458 kts
2026-05-08 16:05 41.04997 4.49868 37880 ft 456 kts
2026-05-08 16:05 41.08123 4.50633 38006 ft 458 kts
2026-05-08 16:05 41.11253 4.51398 37986 ft 459 kts
2026-05-08 16:06 41.17498 4.52927 38003 ft 453 kts
2026-05-08 16:06 41.23722 4.54450 38000 ft 456 kts
2026-05-08 16:07 41.29910 4.55966 38001 ft 455 kts
2026-05-08 16:07 41.36150 4.57496 37989 ft 456 kts
2026-05-08 16:08 41.42385 4.59029 38003 ft 457 kts
2026-05-08 16:08 41.48598 4.60558 37998 ft 456 kts
2026-05-08 16:09 41.53793 4.61840 38001 ft 455 kts
2026-05-08 16:09 41.61085 4.63637 37995 ft 458 kts
2026-05-08 16:10 41.67315 4.65178 38003 ft 455 kts
2026-05-08 16:10 41.73463 4.67218 37996 ft 462 kts 17°
2026-05-08 16:11 41.79268 4.70997 38014 ft 466 kts 27°
2026-05-08 16:11 41.84772 4.75460 37987 ft 466 kts 29°
2026-05-08 16:12 41.90296 4.80074 38003 ft 468 kts 29°
2026-05-08 16:12 41.95796 4.84623 38019 ft 466 kts 29°
2026-05-08 16:13 42.01327 4.89152 38004 ft 465 kts 28°
2026-05-08 16:13 42.06869 4.93664 38013 ft 468 kts 28°
2026-05-08 16:14 42.12430 4.98183 38030 ft 466 kts 28°
2026-05-08 16:14 42.17964 5.02688 38020 ft 466 kts 28°
2026-05-08 16:15 42.23476 5.07185 38013 ft 464 kts 29°
2026-05-08 16:15 42.28999 5.11701 38009 ft 465 kts 28°
2026-05-08 16:16 42.34489 5.16196 37998 ft 463 kts 28°
2026-05-08 16:16 42.40019 5.20731 38015 ft 463 kts 29°
2026-05-08 16:17 42.44566 5.24472 38003 ft 464 kts 28°
2026-05-08 16:17 42.51023 5.29792 37994 ft 463 kts 28°
2026-05-08 16:18 42.56504 5.34317 38027 ft 465 kts 29°
2026-05-08 16:18 42.61984 5.38851 38008 ft 462 kts 28°
2026-05-08 16:19 42.67462 5.43393 38004 ft 463 kts 28°
2026-05-08 16:19 42.72959 5.47960 38020 ft 462 kts 28°
2026-05-08 16:20 42.78428 5.52512 38003 ft 462 kts 28°
2026-05-08 16:20 42.83900 5.57076 38008 ft 462 kts 28°
2026-05-08 16:21 42.89337 5.61620 38002 ft 460 kts 28°
2026-05-08 16:21 42.94818 5.66211 37996 ft 462 kts 29°
2026-05-08 16:22 42.99344 5.70008 38009 ft 463 kts 29°
2026-05-08 16:22 43.05748 5.75394 38006 ft 462 kts 29°
2026-05-08 16:23 43.11182 5.79978 38026 ft 461 kts 28°
2026-05-08 16:23 43.16668 5.84612 38017 ft 460 kts 28°
2026-05-08 16:24 43.22101 5.89208 38017 ft 460 kts 28°
2026-05-08 16:24 43.27545 5.93826 38015 ft 461 kts 28°
2026-05-08 16:25 43.32990 5.98454 38022 ft 460 kts 28°
2026-05-08 16:25 43.38529 6.02786 38006 ft 456 kts 20°
2026-05-08 16:26 43.41513 6.04174 38010 ft 448 kts
2026-05-08 16:26 43.44549 6.04857 38020 ft 445 kts
2026-05-08 16:26 43.50679 6.05521 38017 ft 442 kts 358°
2026-05-08 16:27 43.56843 6.05978 38021 ft 444 kts 358°
2026-05-08 16:27 43.62967 6.06491 38026 ft 441 kts 359°
2026-05-08 16:28 43.69104 6.07064 38020 ft 443 kts 359°
2026-05-08 16:28 43.75288 6.07864 38016 ft 445 kts
2026-05-08 16:29 43.81252 6.10358 38030 ft 454 kts 19°
2026-05-08 16:29 43.86968 6.14120 38031 ft 455 kts 23°
2026-05-08 16:30 43.92578 6.18101 38044 ft 455 kts 23°
2026-05-08 16:30 43.98190 6.22065 38052 ft 456 kts 23°
2026-05-08 16:31 44.03837 6.26005 38056 ft 454 kts 22°
2026-05-08 16:31 44.09483 6.29910 38056 ft 455 kts 22°
2026-05-08 16:32 44.15164 6.33830 38054 ft 453 kts 22°
2026-05-08 16:32 44.20760 6.37695 38058 ft 453 kts 22°
2026-05-08 16:33 44.26411 6.41600 38058 ft 453 kts 22°
2026-05-08 16:33 44.32039 6.45496 38070 ft 453 kts 22°
2026-05-08 16:34 44.37656 6.49394 38065 ft 451 kts 21°
2026-05-08 16:34 44.43272 6.53298 38053 ft 451 kts 21°
2026-05-08 16:35 44.48869 6.57198 38058 ft 451 kts 21°
2026-05-08 16:35 44.54453 6.61093 38062 ft 448 kts 21°
2026-05-08 16:36 44.60037 6.64995 38081 ft 447 kts 21°
2026-05-08 16:36 44.65617 6.68903 38073 ft 451 kts 22°
2026-05-08 16:37 44.71199 6.72825 38068 ft 448 kts 21°
2026-05-08 16:37 44.76770 6.76679 38108 ft 444 kts 19°
2026-05-08 16:38 44.82604 6.78889 38097 ft 432 kts 358°
2026-05-08 16:38 44.88550 6.78803 38084 ft 426 kts 351°
2026-05-08 16:39 44.94441 6.78296 38092 ft 423 kts 351°
2026-05-08 16:39 45.00305 6.77798 38067 ft 425 kts 352°
2026-05-08 16:40 45.06187 6.77355 38063 ft 425 kts 352°
2026-05-08 16:40 45.12067 6.76952 38087 ft 423 kts 352°
2026-05-08 16:41 45.17976 6.76550 38108 ft 427 kts 352°
2026-05-08 16:42 45.26843 6.75962 38116 ft 425 kts 352°
2026-05-08 16:42 45.32756 6.75564 38069 ft 425 kts 352°
2026-05-08 16:43 45.38618 6.75175 38096 ft 423 kts 352°
2026-05-08 16:43 45.44502 6.74781 38068 ft 424 kts 352°
2026-05-08 16:44 45.50378 6.74380 38107 ft 424 kts 352°
2026-05-08 16:44 45.56247 6.73973 38074 ft 424 kts 352°
2026-05-08 16:45 45.62122 6.73571 38082 ft 424 kts 352°
2026-05-08 16:45 45.68017 6.73166 38109 ft 425 kts 352°
2026-05-08 16:46 45.73900 6.72763 38034 ft 424 kts 352°
2026-05-08 16:46 45.79767 6.72360 38112 ft 425 kts 352°
2026-05-08 16:47 45.85675 6.71953 38092 ft 424 kts 352°
2026-05-08 16:47 45.91543 6.71558 38042 ft 422 kts 352°
2026-05-08 16:48 45.97423 6.71156 38050 ft 428 kts 353°
2026-05-08 16:48 46.03336 6.70756 38084 ft 424 kts 352°
2026-05-08 16:49 46.09214 6.70309 38069 ft 422 kts 351°
2026-05-08 16:49 46.14979 6.68958 38133 ft 420 kts 341°
2026-05-08 16:50 46.20499 6.66511 38066 ft 411 kts 337°
2026-05-08 16:50 46.25926 6.63798 38088 ft 416 kts 336°
2026-05-08 16:51 46.31358 6.61088 38074 ft 413 kts 337°
2026-05-08 16:51 46.36778 6.58413 38099 ft 416 kts 337°
2026-05-08 16:52 46.42228 6.55738 38008 ft 411 kts 337°
2026-05-08 16:52 46.47649 6.53077 38040 ft 413 kts 337°
2026-05-08 16:53 46.55802 6.49068 37998 ft 412 kts 337°
2026-05-08 16:53 46.61203 6.46405 37998 ft 412 kts 337°
2026-05-08 16:54 46.66659 6.43711 38035 ft 414 kts 337°
2026-05-08 16:54 46.72068 6.41033 37992 ft 411 kts 337°
2026-05-08 16:55 46.77481 6.38349 38058 ft 412 kts 337°
2026-05-08 16:55 46.82901 6.35655 38029 ft 412 kts 337°
2026-05-08 16:56 46.88307 6.32963 38012 ft 410 kts 336°
2026-05-08 16:56 46.93716 6.30261 38020 ft 413 kts 336°
2026-05-08 16:57 46.99126 6.27555 37937 ft 409 kts 337°
2026-05-08 16:57 47.04532 6.24845 38007 ft 415 kts 336°
2026-05-08 16:58 47.09846 6.21654 38062 ft 410 kts 330°
2026-05-08 16:58 47.14951 6.17941 38005 ft 408 kts 329°
2026-05-08 16:59 47.19987 6.14196 38006 ft 407 kts 329°
2026-05-08 16:59 47.25069 6.10458 37911 ft 408 kts 330°
2026-05-08 17:00 47.30168 6.06742 37966 ft 409 kts 330°
2026-05-08 17:00 47.35469 6.03746 37994 ft 416 kts 344°
2026-05-08 17:01 47.41286 6.03116 37957 ft 424 kts 355°
2026-05-08 17:01 47.47198 6.03306 37992 ft 427 kts 357°
2026-05-08 17:02 47.53161 6.03559 38017 ft 426 kts 357°
2026-05-08 17:02 47.59064 6.03766 37945 ft 423 kts 356°
2026-05-08 17:03 47.64988 6.03929 38050 ft 429 kts 356°
2026-05-08 17:03 47.70933 6.04077 38082 ft 426 kts 356°
2026-05-08 17:04 47.76843 6.04223 37962 ft 425 kts 356°
2026-05-08 17:04 47.82771 6.04404 37977 ft 427 kts 356°
2026-05-08 17:05 47.88722 6.04598 38004 ft 427 kts 356°
2026-05-08 17:05 47.94655 6.04788 37990 ft 426 kts 356°
2026-05-08 17:06 48.00590 6.04974 38011 ft 429 kts 356°
2026-05-08 17:06 48.06598 6.05162 38035 ft 430 kts 356°
2026-05-08 17:07 48.12561 6.05351 38022 ft 427 kts 356°
2026-05-08 17:07 48.18518 6.05536 38004 ft 430 kts 357°
2026-05-08 17:08 48.24509 6.05722 37993 ft 429 kts 357°
2026-05-08 17:08 48.30544 6.05910 38006 ft 430 kts 357°
2026-05-08 17:09 48.36559 6.06133 38028 ft 431 kts 358°
2026-05-08 17:09 48.42507 6.06425 38000 ft 429 kts 358°
2026-05-08 17:10 48.48500 6.06722 38053 ft 432 kts 358°
2026-05-08 17:10 48.54514 6.07016 38025 ft 429 kts 358°
2026-05-08 17:11 48.60496 6.07306 38021 ft 431 kts 358°
2026-05-08 17:11 48.66518 6.07595 37978 ft 433 kts 358°
2026-05-08 17:12 48.72538 6.07881 38052 ft 435 kts 358°
2026-05-08 17:12 48.78577 6.08172 38031 ft 430 kts 358°
2026-05-08 17:13 48.84576 6.08458 38023 ft 432 kts 358°
2026-05-08 17:13 48.90576 6.08744 38041 ft 434 kts 358°
2026-05-08 17:14 48.96608 6.09034 38036 ft 432 kts 358°
2026-05-08 17:14 49.02649 6.09324 38066 ft 434 kts 358°
2026-05-08 17:15 49.08652 6.09613 38035 ft 432 kts 358°
2026-05-08 17:15 49.14695 6.09904 38049 ft 436 kts 359°
2026-05-08 17:16 49.20724 6.10194 38035 ft 434 kts 358°
2026-05-08 17:16 49.26720 6.10485 38046 ft 433 kts 359°
2026-05-08 17:17 49.32774 6.10779 38052 ft 434 kts 359°
2026-05-08 17:17 49.38785 6.11073 38047 ft 434 kts 359°
2026-05-08 17:18 49.44859 6.11371 38055 ft 434 kts 359°
2026-05-08 17:18 49.50898 6.11657 38046 ft 434 kts 358°
2026-05-08 17:19 49.56913 6.11888 38005 ft 433 kts 358°
2026-05-08 17:19 49.62973 6.12108 38017 ft 436 kts 358°
2026-05-08 17:20 49.69047 6.12332 38019 ft 432 kts 358°
2026-05-08 17:20 49.75074 6.12559 38063 ft 436 kts 359°
2026-05-08 17:21 49.81102 6.12798 38045 ft 434 kts 359°
2026-05-08 17:21 49.87098 6.13948 38050 ft 439 kts 12°
2026-05-08 17:22 49.92860 6.17267 38065 ft 441 kts 21°
2026-05-08 17:22 49.98415 6.21265 38052 ft 441 kts 23°
2026-05-08 17:23 50.03963 6.25472 38066 ft 442 kts 24°
2026-05-08 17:23 50.09493 6.29649 38072 ft 443 kts 23°
2026-05-08 17:24 50.15042 6.33793 38075 ft 442 kts 23°
2026-05-08 17:24 50.20579 6.37901 38068 ft 443 kts 23°
2026-05-08 17:25 50.26131 6.42014 38073 ft 442 kts 23°
2026-05-08 17:25 50.31701 6.46144 38064 ft 441 kts 23°
2026-05-08 17:26 50.37144 6.50416 37788 ft 438 kts 27°
2026-05-08 17:26 50.39769 6.52908 37199 ft 441 kts 30°
2026-05-08 17:26 50.42325 6.55533 36665 ft 442 kts 32°
2026-05-08 17:27 50.44859 6.58222 36214 ft 440 kts 32°
2026-05-08 17:27 50.47205 6.60735 35705 ft 441 kts 32°
2026-05-08 17:27 50.49741 6.63450 35168 ft 441 kts 32°
2026-05-08 17:27 50.52244 6.66119 34640 ft 441 kts 33°
2026-05-08 17:28 50.54742 6.68772 34086 ft 443 kts 33°
2026-05-08 17:28 50.57338 6.71519 33128 ft 454 kts 33°
2026-05-08 17:28 50.59917 6.74239 32426 ft 455 kts 33°
2026-05-08 17:28 50.62530 6.76994 31786 ft 454 kts 33°
2026-05-08 17:29 50.65167 6.79774 31158 ft 453 kts 33°
2026-05-08 17:29 50.67782 6.82406 30561 ft 450 kts 30°
2026-05-08 17:29 50.70472 6.84531 30013 ft 444 kts 20°
2026-05-08 17:29 50.73367 6.85716 29502 ft 436 kts
2026-05-08 17:30 50.76343 6.85951 28987 ft 430 kts 359°
2026-05-08 17:30 50.79243 6.85841 28484 ft 425 kts 356°
2026-05-08 17:30 50.82132 6.85614 27975 ft 420 kts 356°
2026-05-08 17:30 50.85027 6.85341 27468 ft 415 kts 355°
2026-05-08 17:31 50.87886 6.85063 26959 ft 410 kts 355°
2026-05-08 17:31 50.90682 6.84799 26475 ft 405 kts 355°
2026-05-08 17:31 50.93494 6.84443 26007 ft 399 kts 353°
2026-05-08 17:31 50.96249 6.84006 25515 ft 395 kts 354°
2026-05-08 17:32 50.98988 6.83845 25026 ft 391 kts 359°
2026-05-08 17:32 51.01682 6.83941 24553 ft 386 kts
2026-05-08 17:32 51.04333 6.84154 24085 ft 382 kts
2026-05-08 17:32 51.06862 6.84406 23575 ft 380 kts
2026-05-08 17:33 51.09524 6.85109 22663 ft 387 kts 14°
2026-05-08 17:33 51.12030 6.86603 21996 ft 387 kts 26°
2026-05-08 17:33 51.14360 6.88756 21427 ft 385 kts 33°
2026-05-08 17:33 51.16534 6.91167 20869 ft 382 kts 36°
2026-05-08 17:34 51.18663 6.93672 20300 ft 380 kts 36°
2026-05-08 17:34 51.20757 6.96160 19883 ft 375 kts 36°
2026-05-08 17:34 51.22857 6.98635 19543 ft 373 kts 36°
2026-05-08 17:34 51.24873 7.00985 19290 ft 373 kts 36°
2026-05-08 17:35 51.26939 7.03369 19124 ft 372 kts 35°
2026-05-08 17:35 51.29052 7.05787 19098 ft 372 kts 35°
2026-05-08 17:35 51.30995 7.08003 19153 ft 374 kts 35°
2026-05-08 17:35 51.32941 7.10216 19103 ft 374 kts 35°
2026-05-08 17:36 51.34788 7.12313 19084 ft 373 kts 35°
2026-05-08 17:36 51.36295 7.14025 19087 ft 373 kts 35°
2026-05-08 17:36 51.40519 7.18822 19085 ft 373 kts 34°
2026-05-08 17:37 51.42623 7.21214 19095 ft 372 kts 34°
2026-05-08 17:37 51.44704 7.23584 19074 ft 356 kts 34°
2026-05-08 17:37 51.46672 7.25828 18972 ft 343 kts 34°
2026-05-08 17:37 51.48588 7.28017 18659 ft 337 kts 34°
2026-05-08 17:38 51.50456 7.30151 17888 ft 346 kts 34°
2026-05-08 17:38 51.52458 7.32439 17051 ft 354 kts 34°
2026-05-08 17:38 51.54450 7.34717 16505 ft 353 kts 34°
2026-05-08 17:38 51.56431 7.36988 16022 ft 350 kts 34°
2026-05-08 17:39 51.58412 7.39261 15511 ft 348 kts 34°
2026-05-08 17:39 51.60363 7.41502 15027 ft 345 kts 34°
2026-05-08 17:39 51.62308 7.43739 14572 ft 341 kts 34°
2026-05-08 17:39 51.64231 7.45952 13962 ft 337 kts 34°
2026-05-08 17:40 51.66114 7.48120 13321 ft 333 kts 34°
2026-05-08 17:40 51.67979 7.50270 12644 ft 331 kts 34°
2026-05-08 17:40 51.69856 7.52437 12001 ft 327 kts 35°
2026-05-08 17:40 51.71683 7.54547 11370 ft 323 kts 35°
2026-05-08 17:41 51.73503 7.56652 10719 ft 320 kts 35°
2026-05-08 17:41 51.75258 7.58683 10388 ft 307 kts 36°
2026-05-08 17:41 51.76967 7.60663 10118 ft 294 kts 36°
2026-05-08 17:41 51.78588 7.62546 9734 ft 287 kts 36°
2026-05-08 17:42 51.80204 7.64426 9187 ft 286 kts 36°
2026-05-08 17:42 51.81810 7.66293 8685 ft 285 kts 37°
2026-05-08 17:42 51.83465 7.68057 8136 ft 284 kts 29°
2026-05-08 17:42 51.85315 7.69043 7676 ft 281 kts
2026-05-08 17:43 51.87206 7.68521 7265 ft 278 kts 336°
2026-05-08 17:43 51.88799 7.66825 6850 ft 274 kts 320°
2026-05-08 17:43 51.90252 7.64877 6404 ft 273 kts 320°
2026-05-08 17:43 51.91729 7.62959 5915 ft 272 kts 321°
2026-05-08 17:44 51.93217 7.61053 5475 ft 271 kts 322°
2026-05-08 17:44 51.94690 7.59159 5072 ft 271 kts 322°
2026-05-08 17:44 51.96152 7.57269 4706 ft 269 kts 322°
2026-05-08 17:44 51.97599 7.55389 4343 ft 268 kts 322°
2026-05-08 17:45 51.99059 7.53488 3984 ft 267 kts 322°
2026-05-08 17:45 52.00499 7.51610 3610 ft 267 kts 322°
2026-05-08 17:45 52.01931 7.49742 3312 ft 263 kts 322°
2026-05-08 17:45 52.03345 7.47902 3061 ft 257 kts 324°
2026-05-08 17:46 52.04810 7.46367 2993 ft 243 kts 338°
2026-05-08 17:46 52.06399 7.45890 2979 ft 224 kts 10°
2026-05-08 17:46 52.07792 7.46712 2988 ft 205 kts 34°
2026-05-08 17:46 52.08865 7.48088 2981 ft 189 kts 53°
2026-05-08 17:47 52.09426 7.49882 2956 ft 174 kts 72°
2026-05-08 17:47 52.09830 7.51712 2727 ft 172 kts 71°
2026-05-08 17:47 52.10245 7.53535 2472 ft 169 kts 71°
2026-05-08 17:47 52.10508 7.54710 2302 ft 162 kts 72°
2026-05-08 17:48 52.10987 7.56923 1999 ft 148 kts 72°
2026-05-08 17:48 52.11329 7.58489 1655 ft 144 kts 72°
2026-05-08 17:48 52.11650 7.59987 1347 ft 141 kts 73°
2026-05-08 17:48 52.11975 7.61484 1084 ft 143 kts 73°
2026-05-08 17:49 52.12298 7.63018 802 ft 141 kts 73°
2026-05-08 17:49 52.12616 7.64541 553 ft 142 kts 71°
2026-05-08 17:49 52.12963 7.66065 518 ft 147 kts 69°
2026-05-08 17:49 52.13311 7.67540 1189 ft 146 kts 73°
2026-05-08 17:50 52.13638 7.69114 1895 ft 149 kts 74°
2026-05-08 17:50 52.13973 7.70713 2539 ft 160 kts 73°
2026-05-08 17:50 52.14401 7.72563 2920 ft 188 kts 71°
2026-05-08 17:50 52.14846 7.74656 3281 ft 201 kts 73°
2026-05-08 17:51 52.15295 7.76832 3571 ft 204 kts 72°
2026-05-08 17:51 52.15753 7.79024 3872 ft 205 kts 72°
2026-05-08 17:51 52.16195 7.81239 4170 ft 207 kts 79°
2026-05-08 17:51 52.16088 7.83537 4468 ft 209 kts 114°
2026-05-08 17:52 52.15180 7.85380 4773 ft 211 kts 143°
2026-05-08 17:52 52.13902 7.86559 4978 ft 215 kts 159°
2026-05-08 17:52 52.11052 7.85992 4941 ft 217 kts 201°
2026-05-08 17:53 52.09613 7.85126 4564 ft 223 kts 198°
2026-05-08 17:53 52.08150 7.84279 4263 ft 225 kts 199°
2026-05-08 17:53 52.06692 7.83340 4237 ft 225 kts 201°
2026-05-08 17:53 52.05174 7.82308 4258 ft 248 kts 201°
2026-05-08 17:54 52.03541 7.81255 4293 ft 252 kts 200°
2026-05-08 17:54 52.01908 7.80249 4405 ft 255 kts 199°
2026-05-08 17:54 52.00257 7.79253 4530 ft 255 kts 199°
2026-05-08 17:54 51.98576 7.78240 4662 ft 255 kts 200°
2026-05-08 17:55 51.96920 7.77243 4797 ft 255 kts 200°
2026-05-08 17:55 51.95268 7.76219 4924 ft 255 kts 206°
2026-05-08 17:55 51.93929 7.74404 4862 ft 252 kts 237°
2026-05-08 17:55 51.93390 7.71803 4736 ft 243 kts 266°
2026-05-08 17:56 51.93568 7.69123 4584 ft 235 kts 285°
2026-05-08 17:56 51.94153 7.66699 4429 ft 227 kts 301°
2026-05-08 17:56 51.95095 7.64745 4293 ft 220 kts 314°
2026-05-08 17:56 51.96151 7.62988 4169 ft 216 kts 315°
2026-05-08 17:57 51.97194 7.61215 4057 ft 216 kts 314°
2026-05-08 17:57 51.98208 7.59421 3914 ft 217 kts 313°
2026-05-08 17:57 51.99210 7.57618 3786 ft 216 kts 313°
2026-05-08 17:57 52.00220 7.55797 3650 ft 215 kts 313°
2026-05-08 17:58 52.01226 7.53983 3475 ft 216 kts 313°
2026-05-08 17:58 52.02225 7.52182 3313 ft 215 kts 314°
2026-05-08 17:58 52.03223 7.50382 3132 ft 214 kts 313°
2026-05-08 17:58 52.04217 7.48587 3012 ft 214 kts 314°
2026-05-08 17:59 52.05256 7.46902 2992 ft 208 kts 325°
2026-05-08 17:59 52.06523 7.46059 2986 ft 187 kts
2026-05-08 17:59 52.07719 7.46457 2999 ft 173 kts 26°
2026-05-08 17:59 52.08756 7.47439 2799 ft 174 kts 47°
2026-05-08 18:00 52.09352 7.49108 2496 ft 172 kts 71°
2026-05-08 18:00 52.10113 7.52733 2016 ft 167 kts 73°
2026-05-08 18:00 52.10489 7.54490 1788 ft 163 kts 73°
2026-05-08 18:01 52.10846 7.56161 1573 ft 151 kts 73°
2026-05-08 18:01 52.11173 7.57697 1411 ft 139 kts 73°
2026-05-08 18:01 52.11491 7.59194 1193 ft 136 kts 71°
2026-05-08 18:01 52.11794 7.60637 1024 ft 136 kts 72°
2026-05-08 18:02 52.12101 7.62101 816 ft 136 kts 71°
2026-05-08 18:02 52.12306 7.63074 703 ft 136 kts 73°
2026-05-08 18:02 52.12734 7.65030 455 ft 139 kts 71°
2026-05-08 18:02 52.13051 7.66520 258 ft 139 kts 72°
2026-05-08 18:03 52.13356 7.67978 165 ft 122 kts 72°
2026-05-08 18:03 52.13559 7.68946 166 ft 61 kts 73°
2026-05-08 18:03 52.13666 7.69442 166 ft 42 kts 71°
2026-05-08 18:03 52.13757 7.69873 165 ft 29 kts 69°
2026-05-08 18:04 52.13747 7.70005 165 ft 9 kts 149°
2026-05-08 18:04 52.13661 7.70036 165 ft 16 kts 191°
2026-05-08 18:04 52.13589 7.69905 165 ft 13 kts 247°
2026-05-08 18:04 52.13567 7.69807 165 ft 8 kts 250°
2026-05-08 18:05 52.13549 7.69720 166 ft 7 kts 251°
2026-05-08 18:05 52.13530 7.69630 166 ft 10 kts 251°
2026-05-08 18:05 52.13506 7.69515 166 ft 10 kts 252°
2026-05-08 18:05 52.13484 7.69409 166 ft 9 kts 251°
2026-05-08 18:06 52.13462 7.69310 166 ft 9 kts 251°
2026-05-08 18:06 52.13427 7.69231 166 ft 8 kts 180°
2026-05-08 18:06 52.13369 7.69257 166 ft 8 kts 162°
2026-05-08 18:06 52.13311 7.69287 166 ft 8 kts 162°
2026-05-08 18:07 52.13256 7.69320 166 ft 7 kts 150°
2026-05-08 18:07 52.13239 7.69374 166 ft 4 kts 80°
2026-05-08 18:07 52.13253 7.69456 166 ft 8 kts 75°
2026-05-08 18:07 52.13250 7.69484 166 ft 3 kts 174°
2026-05-08 18:08 52.13227 7.69475 166 ft 3 kts 198°
2026-05-08 18:08 52.13203 7.69464 166 ft 3 kts 197°
2026-05-08 18:08 52.13187 7.69456 166 ft 0 kts 196°